Cloud_Cover
100 100 100 100 100 100 100 100 28 5 5 5 0 0 0 0 0 6 10 0 0 73 100 100 100 100 69 7 78 100 100 100 100 100 100 100 100 100 90 73 100 56 88 5 5 0 4 20 72 6 7 5 100 100
100 100 100 100 100 100 100 100 25 6 6 5 5 0 0 0 0 0 0 0 0 0 93 100 100 100 96 32 22 94 100 100 100 100 50 73 5 6 13 45 7 73 0 0 2 5 0 14 90 68 5 7 100 100
100 100 100 100 100 100 100 100 53 82 5 5 5 0 0 0 0 2 22 12 0 0 0 100 100 100 100 78 65 47 37 96 100 100 38 6 38 100 96 19 5 2 4 0 0 4 4 28 73 20 8 6 100 100
100 100 100 100 100 100 100 100 88 74 5 5 5 1 0 0 0 1 24 2 0 0 0 6 99 100 100 100 100 80 28 72 100 100 100 100 50 100 100 100 15 32 36 4 63 8 5 5 53 39 58 100 100 100
98 100 100 100 100 100 100 100 100 85 14 5 9 5 0 0 0 0 27 4 0 0 0 0 15 100 100 99 93 100 100 89 98 100 100 29 20 60 100 100 74 5 5 5 3 16 100 87 88 100 100 100 100 100
100 100 100 100 100 100 100 100 100 100 98 91 26 5 0 0 0 0 0 0 0 0 0 0 0 16 75 100 99 6 5 24 99 100 100 7 5 5 32 100 100 100 56 5 2 6 80 100 100 100 100 100 100 100
100 100 100 100 100 100 100 100 100 100 100 100 56 5 0 0 13 3 0 0 0 0 0 0 0 0 4 31 38 41 5 5 5 55 74 100 16 5 5 10 92 100 82 5 5 5 93 79 99 92 100 100 100 100
100 100 100 100 100 100 100 100 100 100 100 100 92 5 0 0 10 55 7 0 0 0 0 0 0 0 0 3 32 20 5 5 5 5 30 21 63 11 5 5 5 60 13 5 5 5 5 49 93 88 64 99 100 100
100 100 100 100 100 100 100 100 100 100 100 100 95 0 0 1 0 0 0 0 0 0 0 1 5 2 0 2 4 49 19 5 4 5 5 14 5 5 51 91 6 6 39 60 92 69 5 5 5 13 5 65 100 100
100 100 100 100 100 100 100 100 100 100 100 100 40 0 0 12 0 0 0 0 0 0 3 44 100 85 2 3 0 4 5 22 5 0 1 5 5 5 5 48 25 5 5 5 5 25 20 5 5 4 5 5 22 100
100 100 100 100 100 100 100 100 100 100 100 98 1 53 70 3 0 0 0 0 0 28 42 100 100 100 18 6 5 2 6 5 5 5 4 4 0 4 4 5 44 5 5 5 56 89 18 4 0 0 0 0 0 4
100 100 100 100 100 100 100 100 100 100 90 15 2 4 3 0 3 1 0 0 4 84 100 100 100 100 90 25 50 5 5 5 1 2 4 5 13 0 0 1 0 1 0 0 0 1 1 1 2 4 0 0 0 0
100 100 100 100 100 100 98 99 45 5 16 5 5 4 5 3 13 4 5 1 14 74 100 100 100 100 100 100 69 47 20 1 5 5 11 47 48 0 4 5 49 16 15 1 3 2 5 5 5 5 4 0 0 0
86 84 100 100 100 100 100 100 96 66 48 36 41 48 9 5 4 0 0 5 23 100 100 100 100 100 99 100 100 99 7 0 0 4 22 94 90 41 40 84 98 22 65 18 5 5 5 5 5 0 0 0 0 0
100 75 100 100 97 96 100 100 100 100 89 64 93 74 11 11 23 7 5 25 100 100 100 100 100 91 18 69 7 4 5 5 14 83 98 100 100 98 100 93 42 64 42 5 2 0 0 0 0 0 0 0 0 0
99 84 95 100 100 99 89 100 100 100 100 98 43 81 86 76 48 5 5 92 100 100 100 100 100 81 25 5 5 5 50 7 93 100 73 35 7 13 99 96 84 36 7 12 11 1 7 1 0 0 0 0 0 0
88 100 100 100 100 100 100 100 100 100 100 67 90 100 52 5 5 91 96 100 73 100 100 98 66 28 5 5 5 40 99 67 85 79 5 5 5 5 5 5 5 7 16 13 20 42 66 100 100 75 16 28 5 1
100 97 100 100 87 90 100 100 100 100 100 100 99 19 14 9 44 100 100 99 70 71 12 5 5 5 5 18 15 52 54 5 15 24 13 6 5 5 7 30 22 31 86 99 100 100 39 54 43 30 68 98 100 100
89 73 100 100 100 100 100 100 100 100 100 95 40 73 19 98 99 100 99 90 10 5 5 5 5 5 5 5 5 15 73 87 100 100 100 100 100 99 100 98 100 100 100 100 98 71 100 100 99 100 100 100 100 100
100 100 100 100 100 100 100 100 100 100 46 12 92 21 90 86 65 36 38 5 6 5 5 6 5 1 3 6 14 54 100 100 100 100 100 100 100 100 100 100 100 100 100 100 100 100 100 100 100 100 100 98 100 100
100 100 100 100 100 100 100 100 30 5 9 86 100 100 100 96 100 39 5 5 5 5 36 94 100 100 37 74 100 100 100 100 100 100 100 100 100 100 100 100 100 100 98 100 100 100 98 100 100 100 100 100 100 100
100 100 100 100 99 100 65 5 5 35 73 90 69 44 85 99 51 55 37 55 94 100 79 19 12 93 100 100 100 100 100 100 100 100 100 100 100 100 100 100 89 100 100 100 97 100 100 100 100 100 100 99 100 100
99 98 96 94 83 73 94 75 100 71 54 95 25 18 7 39 72 96 100 68 20 5 33 97 100 100 100 100 100 100 100 100 100 100 100 99 100 100 100 99 100 100 100 100 100 100 93 81 98 100 100 100 100 100
25 52 50 10 61 100 98 96 40 11 24 10 5 40 100 99 64 54 83 74 15 97 100 100 100 100 100 100 100 100 100 100 100 100 97 100 100 100 100 100 100 100 100 72 82 83 100 100 75 76 62 100 100 100
28 28 53 15 9 24 8 5 5 6 8 37 89 72 93 22 85 100 100 100 100 100 100 100 100 100 100 100 100 100 100 100 100 94 97 70 75 24 41 6 5 7 79 98 40 5 5 5 5 2 0 5 5 5
23 5 5 5 5 10 54 5 18 39 50 28 11 14 87 97 98 100 100 100 100 100 100 100 100 100 100 100 100 100 100 99 97 95 84 85 53 39 22 5 5 5 5 2 1 0 0 5 52 80 96 93 12 5
21 49 65 8 5 5 5 8 29 64 84 84 100 100 100 100 100 100 97 100 100 100 100 100 100 100 100 100 100 100 100 100 100 100 100 100 96 71 92 69 11 5 5 0 0 2 5 20 93 100 100 93 5 3
100 96 52 74 10 19 99 100 96 91 100 100 100 100 100 100 100 100 100 100 100 100 100 100 100 100 100 99 100 98 80 61 43 84 100 100 96 22 7 5 5 10 5 5 8 94 96 19 5 82 94 35 1 3
100 84 75 57 93 72 98 99 100 100 90 100 95 100 100 100 100 100 100 100 100 100 100 96 100 100 100 100 100 100 100 100 97 64 57 95 88 6 6 25 5 1 0 5 5 4 5 79 88 78 94 5 0 0
100 99 100 100 100 100 100 100 100 100 100 100 100 100 100 100 100 100 100 100 100 100 100 100 100 100 100 100 100 96 83 74 84 100 98 40 5 16 6 8 5 4 4 5 4 10 5 0 1 17 9 7 3 5
100 100 100 100 100 100 100 100 100 100 100 100 100 100 100 100 99 100 100 100 100 100 99 89 97 89 97 86 89 75 100 100 100 100 100 100 100 70 12 5 5 9 72 14 13 87 100 96 82 100 100 75 5 5
100 100 100 100 100 100 100 100 100 100 100 100 100 100 100 100 100 100 93 100 99 100 98 100 100 88 55 97 100 100 100 84 74 100 100 52 5 5 5 5 6 5 59 94 12 5 5 9 4 5 5 5 5 4
100 100 100 100 100 100 100 100 100 100 100 100 100 99 100 100 100 100 100 100 100 100 100 99 100 83 54 57 75 97 78 89 52 55 69 75 76 27 54 77 46 34 5 6 7 14 5 5 5 4 3 4 1 1